Information on these data can be found in provided Readme document
Contact Info: Zachary Fasnacht (zachary.fasnacht@ssaihq.com); Nickolay Krotkov (nickolay.a.krotkov@nasa.gov); Lok Lamsal (lok.lamsal@nasa.gov)

FillValue: -999.
ScaleFactor: 1e15
Units: molecules/cm^2

Date(yyyy-mm-dd),City,Country,LonCenter,LatCenter,BoundingCoordinates,Median,Q1,Q3,Mean,Baseline_Median,Baseline_Q1,Baseline_Q3,Baseline_Mean,NumGoodSamples,NumTotalSamples
2015-01-01,Nagasaki,Japan,129.9501,32.8001,[129.4501 32.3001 130.4501 33.3001],4.692,3.864,6.588,5.207,2.848,2.123,4.034,3.201,104.0,551.0
2015-01-02,Nagasaki,Japan,129.9501,32.8001,[129.4501 32.3001 130.4501 33.3001],4.401,3.575,5.785,4.907,2.82,2.119,3.843,3.194,84.0,565.0
2015-01-03,Nagasaki,Japan,129.9501,32.8001,[129.4501 32.3001 130.4501 33.3001],4.881,3.99,7.823,5.962,2.963,2.246,4.313,3.443,102.0,542.0
2015-01-04,Nagasaki,Japan,129.9501,32.8001,[129.4501 32.3001 130.4501 33.3001],7.152,4.224,9.07,7.014,3.09,2.168,4.228,3.436,85.0,549.0
2015-01-05,Nagasaki,Japan,129.9501,32.8001,[129.4501 32.3001 130.4501 33.3001],4.26,3.321,7.685,5.671,2.835,2.14,4.221,3.359,102.0,539.0
2015-01-06,Nagasaki,Japan,129.9501,32.8001,[129.4501 32.3001 130.4501 33.3001],4.26,3.321,7.685,5.676,2.881,2.159,4.258,3.417,101.0,542.0
2015-01-07,Nagasaki,Japan,129.9501,32.8001,[129.4501 32.3001 130.4501 33.3001],4.189,3.282,7.622,5.561,2.765,2.097,4.216,3.329,72.0,546.0
2015-01-08,Nagasaki,Japan,129.9501,32.8001,[129.4501 32.3001 130.4501 33.3001],4.189,3.282,7.622,5.561,2.893,2.236,4.358,3.471,72.0,558.0
2015-01-09,Nagasaki,Japan,129.9501,32.8001,[129.4501 32.3001 130.4501 33.3001],4.189,3.282,7.622,5.561,3.141,2.326,4.905,3.719,72.0,556.0
2015-01-10,Nagasaki,Japan,129.9501,32.8001,[129.4501 32.3001 130.4501 33.3001],4.189,3.282,7.622,5.561,3.13,2.271,4.491,3.521,72.0,515.0
2015-01-11,Nagasaki,Japan,129.9501,32.8001,[129.4501 32.3001 130.4501 33.3001],4.193,3.599,7.685,5.838,3.289,2.419,5.0,3.763,70.0,521.0
2015-01-12,Nagasaki,Japan,129.9501,32.8001,[129.4501 32.3001 130.4501 33.3001],4.224,3.599,7.536,5.624,3.359,2.444,5.078,3.818,79.0,507.0
2015-01-13,Nagasaki,Japan,129.9501,32.8001,[129.4501 32.3001 130.4501 33.3001],4.26,3.599,7.536,5.634,3.716,2.479,5.561,4.144,78.0,515.0
2015-01-14,Nagasaki,Japan,129.9501,32.8001,[129.4501 32.3001 130.4501 33.3001],4.26,3.599,7.622,5.752,3.936,2.994,5.818,4.349,58.0,513.0
2015-01-15,Nagasaki,Japan,129.9501,32.8001,[129.4501 32.3001 130.4501 33.3001],4.26,3.599,7.622,5.741,3.737,2.881,5.771,4.33,56.0,532.0
2015-01-16,Nagasaki,Japan,129.9501,32.8001,[129.4501 32.3001 130.4501 33.3001],3.979,3.599,7.152,5.447,3.881,3.119,5.596,4.313,44.0,526.0
2015-01-17,Nagasaki,Japan,129.9501,32.8001,[129.4501 32.3001 130.4501 33.3001],4.189,3.356,6.428,5.348,3.956,3.09,5.5,4.348,65.0,525.0
2015-01-18,Nagasaki,Japan,129.9501,32.8001,[129.4501 32.3001 130.4501 33.3001],3.867,3.282,4.26,3.978,3.956,3.079,5.32,4.182,47.0,538.0
2015-01-19,Nagasaki,Japan,129.9501,32.8001,[129.4501 32.3001 130.4501 33.3001],3.867,3.282,4.26,3.978,4.113,3.035,5.305,4.154,47.0,515.0
2015-01-20,Nagasaki,Japan,129.9501,32.8001,[129.4501 32.3001 130.4501 33.3001],4.272,3.519,5.502,4.487,4.214,2.699,5.319,4.147,30.0,525.0
2015-01-21,Nagasaki,Japan,129.9501,32.8001,[129.4501 32.3001 130.4501 33.3001],5.636,3.921,6.676,5.68,4.407,2.809,5.426,4.295,44.0,513.0
2015-01-22,Nagasaki,Japan,129.9501,32.8001,[129.4501 32.3001 130.4501 33.3001],5.636,3.921,6.676,5.68,4.396,2.803,5.487,4.35,44.0,516.0
2015-01-23,Nagasaki,Japan,129.9501,32.8001,[129.4501 32.3001 130.4501 33.3001],5.636,3.921,6.676,5.68,4.477,2.781,5.514,4.373,44.0,518.0
2015-01-24,Nagasaki,Japan,129.9501,32.8001,[129.4501 32.3001 130.4501 33.3001],5.636,3.788,6.676,5.649,4.455,2.903,5.501,4.417,68.0,529.0
2015-01-25,Nagasaki,Japan,129.9501,32.8001,[129.4501 32.3001 130.4501 33.3001],5.636,3.788,6.676,5.649,4.492,3.07,5.624,4.594,68.0,559.0
2015-01-26,Nagasaki,Japan,129.9501,32.8001,[129.4501 32.3001 130.4501 33.3001],5.636,3.788,6.676,5.633,4.491,3.105,5.439,4.521,69.0,549.0
2015-01-27,Nagasaki,Japan,129.9501,32.8001,[129.4501 32.3001 130.4501 33.3001],5.814,3.921,7.202,5.884,4.525,3.112,5.586,4.6,60.0,557.0
2015-01-28,Nagasaki,Japan,129.9501,32.8001,[129.4501 32.3001 130.4501 33.3001],5.814,3.921,7.202,5.884,4.115,2.996,5.26,4.248,60.0,541.0
2015-01-29,Nagasaki,Japan,129.9501,32.8001,[129.4501 32.3001 130.4501 33.3001],5.814,3.921,7.202,5.884,4.115,2.947,5.265,4.23,60.0,547.0
2015-01-30,Nagasaki,Japan,129.9501,32.8001,[129.4501 32.3001 130.4501 33.3001],5.255,3.633,6.676,5.38,4.019,2.902,5.18,4.151,69.0,543.0
2015-01-31,Nagasaki,Japan,129.9501,32.8001,[129.4501 32.3001 130.4501 33.3001],5.255,3.528,6.676,5.324,3.877,2.744,5.266,4.129,72.0,559.0
2015-02-01,Nagasaki,Japan,129.9501,32.8001,[129.4501 32.3001 130.4501 33.3001],5.094,3.678,6.676,5.39,3.941,2.821,5.269,4.217,53.0,555.0
2015-02-02,Nagasaki,Japan,129.9501,32.8001,[129.4501 32.3001 130.4501 33.3001],4.591,3.095,6.284,4.821,3.429,2.44,4.752,3.759,78.0,550.0
2015-02-03,Nagasaki,Japan,129.9501,32.8001,[129.4501 32.3001 130.4501 33.3001],4.591,3.095,6.284,4.821,3.119,2.214,4.659,3.561,78.0,566.0
2015-02-04,Nagasaki,Japan,129.9501,32.8001,[129.4501 32.3001 130.4501 33.3001],4.591,3.095,6.284,4.821,3.119,2.215,4.565,3.576,78.0,545.0
2015-02-05,Nagasaki,Japan,129.9501,32.8001,[129.4501 32.3001 130.4501 33.3001],3.304,1.996,4.401,3.557,2.802,1.995,4.167,3.287,64.0,557.0
2015-02-06,Nagasaki,Japan,129.9501,32.8001,[129.4501 32.3001 130.4501 33.3001],2.721,2.322,3.812,3.191,2.822,2.043,4.074,3.257,89.0,546.0
2015-02-07,Nagasaki,Japan,129.9501,32.8001,[129.4501 32.3001 130.4501 33.3001],2.721,2.322,3.812,3.191,2.809,2.039,4.04,3.192,89.0,552.0
2015-02-08,Nagasaki,Japan,129.9501,32.8001,[129.4501 32.3001 130.4501 33.3001],2.694,2.279,3.364,2.821,2.824,2.023,4.148,3.145,65.0,553.0
2015-02-09,Nagasaki,Japan,129.9501,32.8001,[129.4501 32.3001 130.4501 33.3001],2.694,2.279,3.364,2.821,2.78,1.848,4.015,3.036,65.0,563.0
2015-02-10,Nagasaki,Japan,129.9501,32.8001,[129.4501 32.3001 130.4501 33.3001],2.694,2.279,3.364,2.811,2.461,1.74,3.733,2.878,64.0,561.0
2015-02-11,Nagasaki,Japan,129.9501,32.8001,[129.4501 32.3001 130.4501 33.3001],2.694,2.279,3.364,2.811,2.598,1.835,3.776,2.92,64.0,520.0
2015-02-12,Nagasaki,Japan,129.9501,32.8001,[129.4501 32.3001 130.4501 33.3001],2.694,2.279,3.364,2.811,2.604,1.931,3.797,2.957,64.0,528.0
2015-02-13,Nagasaki,Japan,129.9501,32.8001,[129.4501 32.3001 130.4501 33.3001],3.321,2.567,4.127,3.443,2.765,2.033,3.941,3.1,94.0,514.0
2015-02-14,Nagasaki,Japan,129.9501,32.8001,[129.4501 32.3001 130.4501 33.3001],3.321,2.567,4.127,3.454,2.806,2.037,4.141,3.179,85.0,522.0
2015-02-15,Nagasaki,Japan,129.9501,32.8001,[129.4501 32.3001 130.4501 33.3001],3.321,2.567,4.127,3.476,2.94,1.983,4.072,3.139,82.0,518.0
2015-02-16,Nagasaki,Japan,129.9501,32.8001,[129.4501 32.3001 130.4501 33.3001],3.321,2.567,4.127,3.454,2.778,1.938,3.988,2.967,88.0,532.0
2015-02-17,Nagasaki,Japan,129.9501,32.8001,[129.4501 32.3001 130.4501 33.3001],3.521,2.608,4.165,3.628,3.013,2.186,3.849,3.085,63.0,528.0
2015-02-18,Nagasaki,Japan,129.9501,32.8001,[129.4501 32.3001 130.4501 33.3001],3.521,2.608,4.165,3.628,3.065,2.308,3.949,3.193,63.0,523.0
2015-02-19,Nagasaki,Japan,129.9501,32.8001,[129.4501 32.3001 130.4501 33.3001],3.521,2.608,4.165,3.628,3.138,2.416,3.977,3.265,63.0,535.0
2015-02-20,Nagasaki,Japan,129.9501,32.8001,[129.4501 32.3001 130.4501 33.3001],3.757,2.608,4.298,3.693,3.279,2.434,4.083,3.337,77.0,515.0
2015-02-21,Nagasaki,Japan,129.9501,32.8001,[129.4501 32.3001 130.4501 33.3001],4.124,3.655,5.112,4.317,3.252,2.464,4.17,3.348,52.0,525.0
2015-02-22,Nagasaki,Japan,129.9501,32.8001,[129.4501 32.3001 130.4501 33.3001],4.124,3.655,5.112,4.317,3.288,2.519,4.207,3.407,52.0,512.0
2015-02-23,Nagasaki,Japan,129.9501,32.8001,[129.4501 32.3001 130.4501 33.3001],4.124,3.655,5.112,4.317,3.271,2.516,4.202,3.388,52.0,518.0
2015-02-24,Nagasaki,Japan,129.9501,32.8001,[129.4501 32.3001 130.4501 33.3001],4.124,3.655,5.112,4.317,3.336,2.589,4.208,3.447,52.0,520.0
2015-02-25,Nagasaki,Japan,129.9501,32.8001,[129.4501 32.3001 130.4501 33.3001],4.038,3.188,4.764,4.01,3.167,2.248,4.182,3.267,77.0,531.0
2015-02-26,Nagasaki,Japan,129.9501,32.8001,[129.4501 32.3001 130.4501 33.3001],4.038,3.188,4.764,4.01,3.044,2.159,3.877,3.13,77.0,561.0
2015-02-27,Nagasaki,Japan,129.9501,32.8001,[129.4501 32.3001 130.4501 33.3001],4.038,3.188,4.764,4.01,2.948,2.095,3.839,3.049,77.0,551.0
2015-02-28,Nagasaki,Japan,129.9501,32.8001,[129.4501 32.3001 130.4501 33.3001],3.257,1.74,4.321,3.215,2.775,1.867,3.717,2.866,47.0,558.0
2015-03-01,Nagasaki,Japan,129.9501,32.8001,[129.4501 32.3001 130.4501 33.3001],1.686,1.075,2.7,2.072,2.53,1.735,3.29,2.632,77.0,544.0
2015-03-02,Nagasaki,Japan,129.9501,32.8001,[129.4501 32.3001 130.4501 33.3001],1.686,1.075,2.7,2.072,2.523,1.708,3.297,2.618,77.0,552.0
2015-03-03,Nagasaki,Japan,129.9501,32.8001,[129.4501 32.3001 130.4501 33.3001],1.822,1.165,2.486,2.009,2.484,1.673,3.22,2.555,86.0,549.0
2015-03-04,Nagasaki,Japan,129.9501,32.8001,[129.4501 32.3001 130.4501 33.3001],1.855,1.165,2.486,2.003,2.573,1.777,3.36,2.661,111.0,566.0
2015-03-05,Nagasaki,Japan,129.9501,32.8001,[129.4501 32.3001 130.4501 33.3001],1.855,1.165,2.486,2.011,2.57,1.834,3.358,2.671,113.0,561.0
2015-03-06,Nagasaki,Japan,129.9501,32.8001,[129.4501 32.3001 130.4501 33.3001],1.967,1.165,2.7,2.126,2.532,1.701,3.333,2.584,136.0,557.0
2015-03-07,Nagasaki,Japan,129.9501,32.8001,[129.4501 32.3001 130.4501 33.3001],1.855,1.165,2.484,1.9,2.436,1.626,3.166,2.457,122.0,568.0
2015-03-08,Nagasaki,Japan,129.9501,32.8001,[129.4501 32.3001 130.4501 33.3001],1.855,1.165,2.484,1.903,2.447,1.637,3.208,2.457,126.0,548.0
2015-03-09,Nagasaki,Japan,129.9501,32.8001,[129.4501 32.3001 130.4501 33.3001],1.855,1.165,2.484,1.903,2.42,1.617,3.209,2.449,126.0,560.0
2015-03-10,Nagasaki,Japan,129.9501,32.8001,[129.4501 32.3001 130.4501 33.3001],1.697,1.165,2.394,1.848,2.286,1.513,3.06,2.344,150.0,548.0
2015-03-11,Nagasaki,Japan,129.9501,32.8001,[129.4501 32.3001 130.4501 33.3001],1.697,1.165,2.394,1.848,2.284,1.502,3.072,2.318,150.0,553.0
2015-03-12,Nagasaki,Japan,129.9501,32.8001,[129.4501 32.3001 130.4501 33.3001],1.697,1.165,2.394,1.806,2.364,1.628,3.124,2.402,125.0,557.0
2015-03-13,Nagasaki,Japan,129.9501,32.8001,[129.4501 32.3001 130.4501 33.3001],1.692,1.165,2.394,1.789,2.348,1.626,3.105,2.41,134.0,565.0
2015-03-14,Nagasaki,Japan,129.9501,32.8001,[129.4501 32.3001 130.4501 33.3001],1.692,1.165,2.394,1.789,2.287,1.664,3.08,2.369,134.0,565.0
2015-03-15,Nagasaki,Japan,129.9501,32.8001,[129.4501 32.3001 130.4501 33.3001],1.692,1.165,2.394,1.789,2.309,1.665,3.091,2.401,134.0,525.0
2015-03-16,Nagasaki,Japan,129.9501,32.8001,[129.4501 32.3001 130.4501 33.3001],1.741,1.369,2.471,1.95,2.428,1.789,3.32,2.558,104.0,533.0
2015-03-17,Nagasaki,Japan,129.9501,32.8001,[129.4501 32.3001 130.4501 33.3001],1.741,1.369,2.433,1.968,2.421,1.728,3.265,2.503,111.0,519.0
2015-03-18,Nagasaki,Japan,129.9501,32.8001,[129.4501 32.3001 130.4501 33.3001],1.705,1.346,2.549,1.999,2.452,1.793,3.314,2.587,94.0,526.0
2015-03-19,Nagasaki,Japan,129.9501,32.8001,[129.4501 32.3001 130.4501 33.3001],2.247,1.574,3.458,2.652,2.435,1.693,3.248,2.57,105.0,524.0
2015-03-20,Nagasaki,Japan,129.9501,32.8001,[129.4501 32.3001 130.4501 33.3001],2.247,1.574,3.458,2.647,2.492,1.74,3.651,2.751,103.0,538.0
2015-03-21,Nagasaki,Japan,129.9501,32.8001,[129.4501 32.3001 130.4501 33.3001],2.146,1.574,3.425,2.581,2.42,1.742,3.609,2.666,80.0,532.0
2015-03-22,Nagasaki,Japan,129.9501,32.8001,[129.4501 32.3001 130.4501 33.3001],2.062,1.438,3.37,2.43,2.552,1.84,3.711,2.725,105.0,530.0
2015-03-23,Nagasaki,Japan,129.9501,32.8001,[129.4501 32.3001 130.4501 33.3001],2.062,1.438,3.37,2.44,2.52,1.802,3.728,2.686,101.0,537.0
2015-03-24,Nagasaki,Japan,129.9501,32.8001,[129.4501 32.3001 130.4501 33.3001],2.062,1.438,3.37,2.44,2.508,1.805,3.705,2.671,101.0,518.0
2015-03-25,Nagasaki,Japan,129.9501,32.8001,[129.4501 32.3001 130.4501 33.3001],2.742,1.694,3.893,2.913,2.544,1.563,3.579,2.612,77.0,531.0
2015-03-26,Nagasaki,Japan,129.9501,32.8001,[129.4501 32.3001 130.4501 33.3001],2.084,1.297,3.425,2.494,2.512,1.53,3.549,2.591,88.0,515.0
2015-03-27,Nagasaki,Japan,129.9501,32.8001,[129.4501 32.3001 130.4501 33.3001],2.084,1.297,3.425,2.494,2.178,1.351,3.252,2.441,88.0,519.0
2015-03-28,Nagasaki,Japan,129.9501,32.8001,[129.4501 32.3001 130.4501 33.3001],2.259,1.361,3.61,2.555,2.102,1.266,3.176,2.339,79.0,520.0
2015-03-29,Nagasaki,Japan,129.9501,32.8001,[129.4501 32.3001 130.4501 33.3001],1.989,1.009,3.378,2.368,2.06,1.207,3.139,2.313,94.0,528.0
2015-03-30,Nagasaki,Japan,129.9501,32.8001,[129.4501 32.3001 130.4501 33.3001],1.989,1.009,3.378,2.368,2.14,1.294,3.205,2.358,94.0,560.0
2015-03-31,Nagasaki,Japan,129.9501,32.8001,[129.4501 32.3001 130.4501 33.3001],2.046,1.087,3.378,2.355,2.1,1.321,3.072,2.309,96.0,546.0
2015-04-01,Nagasaki,Japan,129.9501,32.8001,[129.4501 32.3001 130.4501 33.3001],2.075,1.009,3.378,2.363,2.168,1.373,3.067,2.352,89.0,552.0
2015-04-02,Nagasaki,Japan,129.9501,32.8001,[129.4501 32.3001 130.4501 33.3001],1.668,0.896,3.0,2.095,2.056,1.33,2.999,2.29,105.0,538.0
2015-04-03,Nagasaki,Japan,129.9501,32.8001,[129.4501 32.3001 130.4501 33.3001],0.959,0.654,1.488,1.058,1.875,1.215,2.674,2.075,69.0,543.0
2015-04-04,Nagasaki,Japan,129.9501,32.8001,[129.4501 32.3001 130.4501 33.3001],1.666,0.896,2.396,1.586,1.859,1.182,2.601,1.889,107.0,543.0
2015-04-05,Nagasaki,Japan,129.9501,32.8001,[129.4501 32.3001 130.4501 33.3001],1.661,0.896,2.396,1.59,1.876,1.191,2.692,1.945,111.0,560.0
2015-04-06,Nagasaki,Japan,129.9501,32.8001,[129.4501 32.3001 130.4501 33.3001],1.668,0.899,2.4,1.622,1.781,1.165,2.509,1.835,86.0,549.0
2015-04-07,Nagasaki,Japan,129.9501,32.8001,[129.4501 32.3001 130.4501 33.3001],1.668,0.899,2.4,1.627,1.8,1.189,2.482,1.844,87.0,550.0
2015-04-08,Nagasaki,Japan,129.9501,32.8001,[129.4501 32.3001 130.4501 33.3001],1.727,0.959,2.4,1.679,1.926,1.295,2.611,1.971,105.0,556.0
2015-04-09,Nagasaki,Japan,129.9501,32.8001,[129.4501 32.3001 130.4501 33.3001],1.727,0.959,2.4,1.679,1.99,1.297,2.712,2.019,105.0,536.0
2015-04-10,Nagasaki,Japan,129.9501,32.8001,[129.4501 32.3001 130.4501 33.3001],2.062,1.222,2.475,1.819,2.04,1.331,2.728,2.044,94.0,551.0
2015-04-11,Nagasaki,Japan,129.9501,32.8001,[129.4501 32.3001 130.4501 33.3001],2.062,1.222,2.475,1.819,2.15,1.386,2.804,2.109,94.0,537.0
2015-04-12,Nagasaki,Japan,129.9501,32.8001,[129.4501 32.3001 130.4501 33.3001],2.062,1.222,2.475,1.819,2.262,1.54,2.897,2.222,94.0,544.0
2015-04-13,Nagasaki,Japan,129.9501,32.8001,[129.4501 32.3001 130.4501 33.3001],2.186,1.409,2.517,1.969,2.222,1.406,2.885,2.193,79.0,547.0
2015-04-14,Nagasaki,Japan,129.9501,32.8001,[129.4501 32.3001 130.4501 33.3001],2.186,1.409,2.517,1.998,2.09,1.372,2.838,2.118,104.0,553.0
2015-04-15,Nagasaki,Japan,129.9501,32.8001,[129.4501 32.3001 130.4501 33.3001],2.298,1.432,2.708,2.161,2.021,1.336,2.769,2.069,129.0,553.0
2015-04-16,Nagasaki,Japan,129.9501,32.8001,[129.4501 32.3001 130.4501 33.3001],2.298,1.432,2.708,2.161,2.097,1.417,2.837,2.137,129.0,513.0
2015-04-17,Nagasaki,Japan,129.9501,32.8001,[129.4501 32.3001 130.4501 33.3001],2.4,1.976,2.864,2.471,2.093,1.446,2.824,2.133,113.0,479.0
2015-04-18,Nagasaki,Japan,129.9501,32.8001,[129.4501 32.3001 130.4501 33.3001],2.114,1.432,2.517,2.091,2.155,1.539,2.868,2.171,142.0,465.0
2015-04-19,Nagasaki,Japan,129.9501,32.8001,[129.4501 32.3001 130.4501 33.3001],1.827,1.235,2.302,1.933,2.125,1.53,2.834,2.155,104.0,469.0
2015-04-20,Nagasaki,Japan,129.9501,32.8001,[129.4501 32.3001 130.4501 33.3001],1.976,1.398,2.53,2.11,2.058,1.386,2.837,2.089,135.0,465.0
2015-04-21,Nagasaki,Japan,129.9501,32.8001,[129.4501 32.3001 130.4501 33.3001],1.976,1.398,2.53,2.11,2.153,1.483,2.952,2.173,135.0,485.0
2015-04-22,Nagasaki,Japan,129.9501,32.8001,[129.4501 32.3001 130.4501 33.3001],1.975,1.398,2.53,2.101,2.156,1.392,3.007,2.154,144.0,479.0
2015-04-23,Nagasaki,Japan,129.9501,32.8001,[129.4501 32.3001 130.4501 33.3001],1.975,1.398,2.526,2.089,2.046,1.353,2.879,2.079,126.0,479.0
2015-04-24,Nagasaki,Japan,129.9501,32.8001,[129.4501 32.3001 130.4501 33.3001],1.975,1.398,2.615,2.098,2.089,1.377,2.876,2.09,146.0,492.0
2015-04-25,Nagasaki,Japan,129.9501,32.8001,[129.4501 32.3001 130.4501 33.3001],1.978,1.464,2.815,2.144,2.04,1.379,2.886,2.09,165.0,470.0
2015-04-26,Nagasaki,Japan,129.9501,32.8001,[129.4501 32.3001 130.4501 33.3001],1.978,1.464,2.815,2.144,1.924,1.344,2.847,2.068,165.0,484.0
2015-04-27,Nagasaki,Japan,129.9501,32.8001,[129.4501 32.3001 130.4501 33.3001],2.014,1.442,2.786,2.16,1.904,1.304,2.77,2.037,176.0,479.0
2015-04-28,Nagasaki,Japan,129.9501,32.8001,[129.4501 32.3001 130.4501 33.3001],2.003,1.402,2.761,2.155,1.877,1.245,2.776,2.014,180.0,484.0
2015-04-29,Nagasaki,Japan,129.9501,32.8001,[129.4501 32.3001 130.4501 33.3001],2.003,1.398,2.786,2.152,1.846,1.225,2.811,2.014,155.0,487.0
2015-04-30,Nagasaki,Japan,129.9501,32.8001,[129.4501 32.3001 130.4501 33.3001],1.975,1.362,2.62,2.047,1.932,1.242,2.881,2.06,148.0,499.0
2015-05-01,Nagasaki,Japan,129.9501,32.8001,[129.4501 32.3001 130.4501 33.3001],1.91,1.362,2.591,2.017,1.783,1.23,2.609,1.909,174.0,529.0
2015-05-02,Nagasaki,Japan,129.9501,32.8001,[129.4501 32.3001 130.4501 33.3001],1.9,1.341,2.591,1.982,1.773,1.199,2.588,1.894,187.0,560.0
2015-05-03,Nagasaki,Japan,129.9501,32.8001,[129.4501 32.3001 130.4501 33.3001],2.099,1.553,2.786,2.181,1.805,1.221,2.592,1.913,162.0,569.0
2015-05-04,Nagasaki,Japan,129.9501,32.8001,[129.4501 32.3001 130.4501 33.3001],2.099,1.553,2.786,2.181,1.804,1.212,2.594,1.901,162.0,555.0
2015-05-05,Nagasaki,Japan,129.9501,32.8001,[129.4501 32.3001 130.4501 33.3001],1.979,1.32,2.678,2.057,1.765,1.127,2.459,1.842,127.0,565.0
2015-05-06,Nagasaki,Japan,129.9501,32.8001,[129.4501 32.3001 130.4501 33.3001],2.452,1.693,2.93,2.316,1.818,1.202,2.422,1.83,161.0,559.0
2015-05-07,Nagasaki,Japan,129.9501,32.8001,[129.4501 32.3001 130.4501 33.3001],2.452,1.753,2.93,2.327,1.875,1.249,2.444,1.89,152.0,574.0
2015-05-08,Nagasaki,Japan,129.9501,32.8001,[129.4501 32.3001 130.4501 33.3001],2.452,1.753,2.93,2.327,1.889,1.222,2.402,1.851,152.0,571.0
2015-05-09,Nagasaki,Japan,129.9501,32.8001,[129.4501 32.3001 130.4501 33.3001],2.455,1.756,2.93,2.334,1.872,1.205,2.386,1.831,132.0,563.0
2015-05-10,Nagasaki,Japan,129.9501,32.8001,[129.4501 32.3001 130.4501 33.3001],2.452,1.756,2.875,2.299,1.814,1.188,2.344,1.798,134.0,575.0
2015-05-11,Nagasaki,Japan,129.9501,32.8001,[129.4501 32.3001 130.4501 33.3001],2.452,1.756,2.875,2.299,1.881,1.25,2.668,1.975,134.0,550.0
2015-05-12,Nagasaki,Japan,129.9501,32.8001,[129.4501 32.3001 130.4501 33.3001],2.415,1.762,2.93,2.31,1.865,1.282,2.641,1.993,123.0,554.0
2015-05-13,Nagasaki,Japan,129.9501,32.8001,[129.4501 32.3001 130.4501 33.3001],2.672,2.014,3.092,2.505,2.032,1.395,2.816,2.099,135.0,547.0
2015-05-14,Nagasaki,Japan,129.9501,32.8001,[129.4501 32.3001 130.4501 33.3001],2.672,1.986,3.092,2.497,2.049,1.409,2.84,2.128,139.0,552.0
2015-05-15,Nagasaki,Japan,129.9501,32.8001,[129.4501 32.3001 130.4501 33.3001],2.527,2.031,3.092,2.498,2.052,1.427,2.795,2.123,152.0,553.0
2015-05-16,Nagasaki,Japan,129.9501,32.8001,[129.4501 32.3001 130.4501 33.3001],2.647,2.095,3.216,2.583,2.107,1.463,2.88,2.175,126.0,561.0
2015-05-17,Nagasaki,Japan,129.9501,32.8001,[129.4501 32.3001 130.4501 33.3001],2.755,2.158,3.216,2.695,2.129,1.49,2.817,2.179,136.0,560.0
2015-05-18,Nagasaki,Japan,129.9501,32.8001,[129.4501 32.3001 130.4501 33.3001],2.755,2.158,3.216,2.694,2.13,1.483,2.819,2.18,132.0,518.0
2015-05-19,Nagasaki,Japan,129.9501,32.8001,[129.4501 32.3001 130.4501 33.3001],2.755,2.158,3.216,2.695,2.213,1.493,2.809,2.191,134.0,524.0
2015-05-20,Nagasaki,Japan,129.9501,32.8001,[129.4501 32.3001 130.4501 33.3001],2.69,2.158,3.216,2.693,2.306,1.661,2.916,2.313,140.0,507.0
2015-05-21,Nagasaki,Japan,129.9501,32.8001,[129.4501 32.3001 130.4501 33.3001],2.628,2.095,3.216,2.632,2.241,1.602,2.865,2.254,106.0,517.0
2015-05-22,Nagasaki,Japan,129.9501,32.8001,[129.4501 32.3001 130.4501 33.3001],2.527,2.056,3.216,2.588,2.258,1.615,2.884,2.275,140.0,517.0
2015-05-23,Nagasaki,Japan,129.9501,32.8001,[129.4501 32.3001 130.4501 33.3001],2.527,2.056,3.216,2.588,2.227,1.628,2.893,2.243,140.0,531.0
2015-05-24,Nagasaki,Japan,129.9501,32.8001,[129.4501 32.3001 130.4501 33.3001],2.564,2.095,3.216,2.6,2.262,1.664,2.926,2.279,155.0,527.0
2015-05-25,Nagasaki,Japan,129.9501,32.8001,[129.4501 32.3001 130.4501 33.3001],2.527,2.037,3.162,2.519,2.301,1.67,2.946,2.301,151.0,524.0
2015-05-26,Nagasaki,Japan,129.9501,32.8001,[129.4501 32.3001 130.4501 33.3001],2.527,2.037,3.162,2.519,2.164,1.581,2.745,2.148,151.0,539.0
2015-05-27,Nagasaki,Japan,129.9501,32.8001,[129.4501 32.3001 130.4501 33.3001],2.527,2.037,3.162,2.519,2.13,1.536,2.703,2.106,151.0,517.0
2015-05-28,Nagasaki,Japan,129.9501,32.8001,[129.4501 32.3001 130.4501 33.3001],2.311,1.89,3.006,2.396,2.037,1.468,2.616,2.036,135.0,524.0
2015-05-29,Nagasaki,Japan,129.9501,32.8001,[129.4501 32.3001 130.4501 33.3001],2.311,1.89,3.071,2.403,1.998,1.452,2.613,2.017,131.0,517.0
2015-05-30,Nagasaki,Japan,129.9501,32.8001,[129.4501 32.3001 130.4501 33.3001],2.369,1.89,2.91,2.412,1.946,1.451,2.627,2.005,103.0,523.0
2015-05-31,Nagasaki,Japan,129.9501,32.8001,[129.4501 32.3001 130.4501 33.3001],2.369,1.89,2.91,2.412,1.918,1.41,2.609,1.98,103.0,527.0
2015-06-01,Nagasaki,Japan,129.9501,32.8001,[129.4501 32.3001 130.4501 33.3001],2.288,1.831,2.868,2.308,1.981,1.382,2.612,2.003,80.0,536.0
2015-06-02,Nagasaki,Japan,129.9501,32.8001,[129.4501 32.3001 130.4501 33.3001],2.288,1.831,2.868,2.308,2.033,1.43,2.65,2.038,80.0,566.0
2015-06-03,Nagasaki,Japan,129.9501,32.8001,[129.4501 32.3001 130.4501 33.3001],2.288,1.831,2.868,2.305,2.035,1.461,2.631,2.048,78.0,557.0
2015-06-04,Nagasaki,Japan,129.9501,32.8001,[129.4501 32.3001 130.4501 33.3001],2.255,1.831,2.841,2.269,1.919,1.378,2.521,1.937,72.0,598.0
2015-06-05,Nagasaki,Japan,129.9501,32.8001,[129.4501 32.3001 130.4501 33.3001],2.599,1.89,3.395,2.497,2.007,1.397,2.682,2.02,83.0,583.0
2015-06-06,Nagasaki,Japan,129.9501,32.8001,[129.4501 32.3001 130.4501 33.3001],2.692,1.708,3.512,2.522,2.056,1.285,2.889,2.097,48.0,589.0
2015-06-07,Nagasaki,Japan,129.9501,32.8001,[129.4501 32.3001 130.4501 33.3001],2.692,1.708,3.512,2.522,2.228,1.513,3.006,2.229,48.0,587.0
2015-06-08,Nagasaki,Japan,129.9501,32.8001,[129.4501 32.3001 130.4501 33.3001],2.358,1.345,3.469,2.311,2.284,1.624,3.069,2.342,42.0,603.0
2015-06-09,Nagasaki,Japan,129.9501,32.8001,[129.4501 32.3001 130.4501 33.3001],3.469,2.358,3.813,3.056,2.267,1.585,2.959,2.289,25.0,596.0
2015-06-10,Nagasaki,Japan,129.9501,32.8001,[129.4501 32.3001 130.4501 33.3001],3.469,2.358,3.813,3.056,2.28,1.588,2.942,2.284,25.0,592.0
2015-06-11,Nagasaki,Japan,129.9501,32.8001,[129.4501 32.3001 130.4501 33.3001],3.469,2.358,3.813,3.056,2.328,1.607,3.004,2.319,25.0,606.0
2015-06-12,Nagasaki,Japan,129.9501,32.8001,[129.4501 32.3001 130.4501 33.3001],3.469,2.358,3.813,3.056,2.356,1.645,2.977,2.322,25.0,584.0
2015-06-13,Nagasaki,Japan,129.9501,32.8001,[129.4501 32.3001 130.4501 33.3001],3.469,2.358,3.813,3.056,2.335,1.644,3.03,2.326,25.0,591.0
2015-06-14,Nagasaki,Japan,129.9501,32.8001,[129.4501 32.3001 130.4501 33.3001],2.694,2.1,3.022,2.64,2.296,1.629,2.968,2.303,36.0,580.0
2015-06-15,Nagasaki,Japan,129.9501,32.8001,[129.4501 32.3001 130.4501 33.3001],2.694,2.1,3.022,2.64,2.235,1.561,2.951,2.259,36.0,584.0
2015-06-16,Nagasaki,Japan,129.9501,32.8001,[129.4501 32.3001 130.4501 33.3001],2.694,2.1,3.022,2.64,2.232,1.568,3.007,2.255,36.0,587.0
2015-06-17,Nagasaki,Japan,129.9501,32.8001,[129.4501 32.3001 130.4501 33.3001],2.694,2.1,3.022,2.64,2.237,1.529,3.007,2.251,36.0,596.0
2015-06-18,Nagasaki,Japan,129.9501,32.8001,[129.4501 32.3001 130.4501 33.3001],2.694,2.1,3.022,2.64,2.296,1.56,3.035,2.293,36.0,596.0
2015-06-19,Nagasaki,Japan,129.9501,32.8001,[129.4501 32.3001 130.4501 33.3001],2.694,2.1,3.022,2.64,2.3,1.569,3.043,2.3,36.0,523.0
2015-06-20,Nagasaki,Japan,129.9501,32.8001,[129.4501 32.3001 130.4501 33.3001],2.163,1.759,2.861,2.236,2.261,1.541,3.033,2.271,25.0,529.0